Location: Newark
(48.5667°N, 7.8167°E)
Time: 03:05:40
(UTC+00:00)

CZ-6 R/B - Pass Details

Date: 28 November 2021
Orbit: 385 x 499 km, 97.7° (Epoch: 27 January)

Event Time Altitude Azimuth Distance (km) Brightness Sun altitude
Rises 16:17:30 0° 15° (NNE) 2,399 ? -6.7°
Reaches altitude 10° 16:19:34 10° 19° (NNE) 1,508 ? -7.0°
Maximum altitude 16:22:46 65° 102° (ESE) 454 ? -7.5°
Drops below altitude 10° 16:25:49 10° 185° (S) 1,443 ? -7.9°
Sets 16:27:45 0° 188° (S) 2,283 ? -8.2°
